Find Starlink 3976

NORAD ID: 52673 Int'l Des: 2022-053 Owner: SPXS Country: US Constellation: starlink operational
LEOCIRCULAR

現在のビュー

3D地球を読み込み中...

About Starlink 3976

Starlink 3976 (NORAD 52673) is a starlink constellation satellite (v1.5) launched May 18, 2022 by SPXS of US. It operates in LEO, CIRCULAR orbit with a mass of 297.00 kg.

Starlink 3976について

説明を読み込み中...

次回通過

Passes for default location (London). Set your location on the main map for personalized predictions.

高度履歴

Loading altitude history...

軌道要素

1 52673U 22053T 26167.00253738 .00000506 00000-0 49903-4 0 9995
2 52673 53.1593 72.6894 0001321 87.1280 272.9862 15.08830688225888
Epoch: Jun 16, 2026 • Age: 8 hours

現在のステータス

高度 558.9 km
速度 7.58 km/s
衛星直下点 -52.55°S, 24.62°W
打ち上げ日 May 18, 2022
運用期間 4 years
タイプ internet

技術仕様

分類 Payload
質量 297.00 kg
乾燥質量 275.00 kg
総質量 297.00 kg
長さ 0.20 m
直径 2.80 m
スパン 9.00 m
形状 Box + pan
製造者 SPXS
バスタイプ Starlink
フェーズステータス In Orbit
所有者/国 SPXS/US

Most Searched